Date String (YYYY-MM-DD hh:mm:ss) UTC,Instrument flags,Ambient pressure (hPa),Sample flow (lpm),Bypass flow (lpm),Sample temperature (°C),Ambient temperature (°C),ASC tube jacket temperature (°C),LED temperature (°C),Box temperature (°C),Sample RH (%),Span deviation,Mass concentration (μg/m³),Mass concentration (μg/m³),Mass concentration (μg/m³)
DateTimeUTC,F1_M11,P_M11,Q1_M11,Q2_M11,T1_M11,T2_M11,T3_M11,T4_M11,T5_M11,U1_M11,ZSPAN_M11,X2_M11,X0_M11,X1_M11
2023-02-17 23:00:00,,0825.8,4.98,0.00,26.7,25.3,00.0,35.5,28.5,10.3,0000.0,0004.83,0010.79,0004.34
2023-02-17 23:01:00,,0825.9,4.99,0.00,26.7,25.3,00.0,35.5,28.5,10.3,0000.0,0004.85,0010.82,0004.40
2023-02-17 23:02:00,,0826.0,5.01,0.00,26.7,25.3,00.0,35.5,28.5,10.0,0000.0,0004.97,0010.76,0004.52
2023-02-17 23:03:00,,0825.9,5.01,0.00,26.7,25.2,00.0,35.5,28.5,09.9,0000.0,0005.23,0011.55,0004.73
2023-02-17 23:04:00,,0825.7,5.01,0.00,26.7,25.2,00.0,35.5,28.5,10.1,0000.0,0005.40,0011.07,0004.89
2023-02-17 23:05:00,,0825.9,4.97,0.00,26.7,25.1,00.0,35.5,28.5,10.1,0000.0,0005.51,0011.07,0005.00
2023-02-17 23:06:00,,0826.2,5.01,0.00,26.7,25.1,00.0,35.5,28.5,09.6,0000.0,0005.65,0011.43,0005.13
2023-02-17 23:07:00,,0826.2,5.01,0.00,26.7,25.1,00.0,35.5,28.5,09.7,0000.0,0005.74,0011.98,0005.21
2023-02-17 23:08:00,,0826.1,5.01,0.00,26.6,25.0,00.0,35.5,28.4,08.4,0000.0,0005.72,0011.80,0005.24
2023-02-17 23:09:00,,0826.0,4.99,0.00,26.6,24.9,00.0,35.5,28.4,09.2,0000.0,0005.71,0011.19,0005.22
2023-02-17 23:10:00,,0825.9,5.01,0.00,26.6,24.9,00.0,35.5,28.4,09.7,0000.0,0005.80,0011.28,0005.29
2023-02-17 23:11:00,,0825.8,4.99,0.00,26.6,24.9,00.0,35.5,28.4,10.2,0000.0,0005.83,0011.93,0005.34
2023-02-17 23:12:00,,0825.8,5.00,0.00,26.6,24.9,00.0,35.5,28.4,10.2,0000.0,0005.91,0012.09,0005.38
2023-02-17 23:13:00,,0825.9,5.00,0.00,26.6,24.9,00.0,35.5,28.4,10.0,0000.0,0005.93,0012.13,0005.40
2023-02-17 23:14:00,,0825.9,4.99,0.00,26.6,24.9,00.0,35.5,28.4,09.8,0000.0,0005.92,0011.67,0005.40
2023-02-17 23:15:00,,0826.0,5.00,0.00,26.6,24.9,00.0,35.5,28.4,09.6,0000.0,0005.91,0011.68,0005.39
2023-02-17 23:16:00,,0826.1,5.00,0.00,26.6,24.9,00.0,35.5,28.4,08.3,0000.0,0005.85,0011.86,0005.36
2023-02-17 23:17:00,,0825.9,4.98,0.00,26.6,24.9,00.0,35.5,28.3,08.8,0000.0,0005.80,0012.35,0005.31
2023-02-17 23:18:00,,0825.7,5.00,0.00,26.6,24.8,00.0,35.5,28.3,09.3,0000.0,0005.77,0012.04,0005.28
2023-02-17 23:19:00,,0826.2,5.00,0.00,26.5,24.8,00.0,35.4,28.3,09.4,0000.0,0005.78,0012.19,0005.27
2023-02-17 23:20:00,,0825.9,5.01,0.00,26.5,24.8,00.0,35.4,28.3,09.6,0000.0,0005.83,0012.26,0005.32
2023-02-17 23:21:00,,0826.1,5.00,0.00,26.5,24.7,00.0,35.4,28.3,10.0,0000.0,0005.80,0011.83,0005.32
2023-02-17 23:22:00,,0826.2,5.04,0.00,26.5,24.7,00.0,35.4,28.2,10.1,0000.0,0005.79,0010.92,0005.32
2023-02-17 23:23:00,,0826.1,4.98,0.00,26.5,24.6,00.0,35.4,28.2,10.2,0000.0,0005.76,0010.62,0005.32
2023-02-17 23:24:00,,0825.8,5.02,0.00,26.5,24.6,00.0,35.4,28.2,09.6,0000.0,0005.78,0010.56,0005.33
2023-02-17 23:25:00,,0825.9,4.98,0.00,26.5,24.6,00.0,35.4,28.2,09.6,0000.0,0005.81,0010.74,0005.35
2023-02-17 23:26:00,,0825.8,4.97,0.00,26.5,24.6,00.0,35.4,28.2,09.5,0000.0,0005.86,0011.18,0005.38
2023-02-17 23:27:00,,0826.0,4.99,0.00,26.4,24.5,00.0,35.4,28.2,09.5,0000.0,0005.94,0011.15,0005.48
2023-02-17 23:28:00,,0826.1,5.00,0.00,26.4,24.5,00.0,35.4,28.1,09.6,0000.0,0006.06,0010.48,0005.58
2023-02-17 23:29:00,,0825.7,5.01,0.00,26.4,24.4,00.0,35.4,28.1,09.6,0000.0,0006.13,0010.68,0005.66
2023-02-17 23:30:00,,0825.9,4.99,0.00,26.4,24.4,00.0,35.3,28.1,10.1,0000.0,0006.17,0010.85,0005.72
2023-02-17 23:31:00,,0825.9,5.00,0.00,26.4,24.4,00.0,35.3,28.0,10.4,0000.0,0006.25,0010.98,0005.76
2023-02-17 23:32:00,,0826.0,5.01,0.00,26.3,24.5,00.0,35.3,28.0,10.6,0000.0,0006.32,0011.16,0005.78
2023-02-17 23:33:00,,0825.9,5.00,0.00,26.3,24.5,00.0,35.3,28.0,10.4,0000.0,0006.36,0011.24,0005.80
2023-02-17 23:34:00,,0826.0,5.02,0.00,26.3,24.6,00.0,35.3,28.0,10.4,0000.0,0006.43,0011.40,0005.83
2023-02-17 23:35:00,,0825.9,5.01,0.00,26.3,24.6,00.0,35.3,28.0,09.7,0000.0,0006.50,0011.96,0005.88
2023-02-17 23:36:00,,0825.8,5.00,0.00,26.3,24.5,00.0,35.3,28.0,09.8,0000.0,0006.46,0011.81,0005.87
2023-02-17 23:37:00,,0825.8,5.00,0.00,26.3,24.5,00.0,35.2,28.0,10.1,0000.0,0006.43,0011.38,0005.84
2023-02-17 23:38:00,,0825.9,5.01,0.00,26.3,24.5,00.0,35.2,28.1,10.1,0000.0,0006.39,0011.39,0005.78
2023-02-17 23:39:00,,0825.8,4.98,0.00,26.3,24.6,00.0,35.2,28.1,10.2,0000.0,0006.33,0011.44,0005.72
2023-02-17 23:40:00,,0825.9,4.99,0.00,26.3,24.6,00.0,35.2,28.1,10.1,0000.0,0006.32,0011.12,0005.70
2023-02-17 23:41:00,,0826.0,5.01,0.00,26.3,24.7,00.0,35.2,28.1,10.6,0000.0,0006.33,0011.25,0005.69
2023-02-17 23:42:00,,0826.0,5.02,0.00,26.3,24.8,00.0,35.2,28.1,10.5,0000.0,0006.33,0011.55,0005.69
2023-02-17 23:43:00,,0826.0,4.98,0.00,26.3,24.8,00.0,35.2,28.1,10.1,0000.0,0006.35,0011.64,0005.71
2023-02-17 23:44:00,,0826.0,4.99,0.00,26.3,24.8,00.0,35.2,28.1,10.3,0000.0,0006.39,0011.94,0005.72
2023-02-17 23:45:00,,0826.0,5.01,0.00,26.3,24.9,00.0,35.2,28.1,10.3,0000.0,0006.39,0012.66,0005.74
2023-02-17 23:46:00,,0826.0,4.99,0.00,26.3,24.9,00.0,35.2,28.1,10.0,0000.0,0006.41,0012.33,0005.76
2023-02-17 23:47:00,,0826.0,4.99,0.00,26.3,24.8,00.0,35.2,28.1,10.1,0000.0,0006.49,0012.45,0005.81
2023-02-17 23:48:00,,0825.9,4.99,0.00,26.3,24.7,00.0,35.2,28.0,09.8,0000.0,0006.61,0012.73,0005.92
2023-02-17 23:49:00,,0825.9,4.99,0.00,26.3,24.7,00.0,35.2,28.0,09.8,0000.0,0006.75,0012.85,0006.04
2023-02-17 23:50:00,,0826.0,5.01,0.00,26.3,24.6,00.0,35.2,28.1,09.8,0000.0,0006.90,0013.50,0006.17
2023-02-17 23:51:00,,0825.9,5.00,0.00,26.3,24.5,00.0,35.2,28.0,09.9,0000.0,0007.03,0013.64,0006.29
2023-02-17 23:52:00,,0825.8,5.03,0.00,26.3,24.5,00.0,35.2,28.0,10.0,0000.0,0007.16,0013.54,0006.43
2023-02-17 23:53:00,,0825.8,5.01,0.00,26.2,24.4,00.0,35.2,27.9,10.0,0000.0,0007.30,0013.71,0006.55
2023-02-17 23:54:00,,0825.9,5.01,0.00,26.2,24.3,00.0,35.2,27.9,10.0,0000.0,0007.39,0014.05,0006.65
2023-02-17 23:55:00,,0825.9,5.00,0.00,26.2,24.2,00.0,35.1,27.8,10.0,0000.0,0007.49,0014.21,0006.77
2023-02-17 23:56:00,,0825.9,5.00,0.00,26.1,24.2,00.0,35.1,27.8,10.1,0000.0,0007.60,0013.60,0006.89
2023-02-17 23:57:00,,0825.9,5.02,0.00,26.1,24.2,00.0,35.1,27.8,10.1,0000.0,0007.71,0014.03,0006.99
2023-02-17 23:58:00,,0825.9,4.99,0.00,26.1,24.1,00.0,35.1,27.8,10.1,0000.0,0007.79,0014.09,0007.08
2023-02-17 23:59:00,,0826.0,4.99,0.00,26.1,24.2,00.0,35.1,27.8,10.2,0000.0,0007.81,0014.34,0007.15
